Location: McCall
(45.0000°N, 116.0000°W)
Time: 07:41:12
(UTC-06:00)

Saudisat 1A - Visible Passes

Search period start: 01 September 2014 00:00
Search period end: 11 September 2014 00:00
Orbit: 600 x 607 km, 64.6° (Epoch: 31 August)

Date Brightness Start Highest point End Pass type
(mag) Time Alt. Az. Time Alt. Az. Time Alt. Az.
01 Sep 10.8 01:33:17 15° NNW 01:33:17 15° NNW 01:34:56 10° N visible
01 Sep 10.7 06:33:27 10° NNW 06:36:52 21° NE 06:40:16 10° E visible
02 Sep 10.7 00:08:02 13° NNE 00:08:02 13° NNE 00:08:31 10° NNE visible
02 Sep 11.0 01:44:48 12° NNW 01:44:48 12° NNW 01:46:32 10° N visible
03 Sep 10.6 00:19:24 17° N 00:19:24 17° N 00:20:40 10° NNE visible
03 Sep 11.1 05:19:31 10° N 05:21:24 12° NNE 05:23:18 10° NE visible
04 Sep 10.6 00:30:28 19° NNW 00:30:28 19° NNW 00:32:40 10° NNE visible
04 Sep 10.9 05:31:10 10° N 05:34:11 18° NE 05:37:12 10° ENE visible
04 Sep 9.7 23:04:03 26° NNE 23:04:03 26° NNE 23:06:03 10° NNE visible
05 Sep 10.9 00:40:40 13° NW 00:42:03 14° NNW 00:44:27 10° N visible
05 Sep 10.3 05:43:06 10° NNW 05:46:51 26° NE 05:50:35 10° E visible
05 Sep 8.8 21:30:55 10° S 21:34:38 28° ESE 21:38:24 10° ENE visible
05 Sep 9.3 23:09:56 10° WSW 23:14:05 39° NW 23:18:15 10° NNE visible
06 Sep 11.3 00:54:29 10° NNW 00:54:54 10° NNW 00:55:19 10° NNW visible
06 Sep 11.3 04:17:42 10° NNE 04:18:38 11° NNE 04:19:34 10° NE visible
06 Sep 9.4 05:55:11 10° NNW 05:59:24 42° NE 06:03:35 10° ESE visible
06 Sep 8.1 21:42:33 10° SSW 21:46:49 50° ESE 21:51:06 10° NE visible
06 Sep 10.2 23:22:59 10° W 23:26:39 25° NW 23:30:20 10° NNE visible
07 Sep 11.1 04:28:55 10° N 04:31:28 15° NNE 04:34:00 10° ENE visible
07 Sep 8.3 06:07:24 10° NNW 06:11:50 73° NE 06:16:14 10° SE visible
07 Sep 7.9 21:54:41 10° SW 21:59:06 88° NW 22:03:33 10° NE visible
07 Sep 10.8 23:36:26 10° WNW 23:39:19 17° NW 23:42:14 10° N visible
08 Sep 10.5 04:40:44 10° NNW 04:44:11 22° NE 04:47:36 10° E visible
08 Sep 8.0 06:19:46 10° NW 06:24:09 63° WSW 06:28:30 10° SSE visible
08 Sep 8.9 22:07:11 10° SW 22:11:29 50° NW 22:15:49 10° NNE visible
08 Sep 11.2 23:50:25 10° NW 23:52:06 12° NNW 23:53:48 10° N visible
09 Sep 9.8 04:52:45 10° NNW 04:56:47 33° NE 05:00:47 10° ESE visible
09 Sep 8.6 06:32:22 10° NW 06:36:22 34° WSW 06:40:19 10° S visible
09 Sep 8.5 20:40:17 10° S 20:44:21 37° ESE 20:48:26 10° NE visible
09 Sep 9.9 22:20:04 10° WSW 22:23:59 31° NW 22:27:56 10° NNE visible
10 Sep 11.2 03:26:46 10° N 03:28:42 13° NNE 03:30:38 10° NE visible
10 Sep 8.7 05:04:54 10° NNW 05:09:16 55° NE 05:13:35 10° SE visible
10 Sep 9.4 06:45:22 10° WNW 06:48:27 19° WSW 06:51:32 10° SSW visible
10 Sep 8.0 20:52:11 10° SSW 20:56:34 69° ESE 21:00:59 10° NE visible
10 Sep 10.6 22:33:18 10° W 22:36:36 20° NW 22:39:55 10° N visible
